[[{"header":{"parameterUnit":"m.s-1","parameterCategory":1,"la1":30.2991,"la2":30.254,"lo1":-89.0895,"lo2":-89.0444,"dy":0.0017,"dx":0.0017,"nx":28,"ny":28,"refTime":"2024-08-31T03:00:00:Z","depth":0,"parameterNumber":2,"parameterNumberName":"U-component_of_WINDS"},"data":[0,0,0,0,0,0,0,0,0,0,0,0,0,0,0,0,0,0,0,0,0,0,0,0,0,0,0,0,0,0,0,0,0,0,0,0,0,0,0,0,0,0,0,0,0,0,0,0,0,0,0,0,0,0,0,0,0,0,-0.7431,-0.7431,0,-0.7377,-0.7377,-0.7376,-0.7337,-0.7337,-0.7337,-0.7336,-0.7282,-0.728,-0.7279,0,0,0,0,0,0,0,0,0,0,0,0,0,-0.7501,-0.75,-0.7431,-0.7431,-0.743,-0.7378,-0.7377,-0.7376,-0.7337,-0.7337,-0.7336,-0.7336,-0.7282,-0.7281,-0.7279,0,0,0,0,0,0,0,0,0,0,0,0,0,-0.7461,-0.7499,-0.7432,-0.7404,-0.7401,-0.7378,-0.7377,-0.7376,-0.7337,-0.7337,-0.7336,-0.7336,-0.7282,-0.7281,-0.7279,-0.7278,0,0,-0.7274,-0.7273,0,0,0,0,0,0,0,0,-0.7463,-0.7459,-0.7409,-0.7406,-0.7403,-0.7363,-0.7381,-0.7343,-0.7337,-0.7362,-0.7336,-0.7336,-0.7309,-0.7305,-0.7296,-0.7276,-0.7273,-0.7274,-0.7273,-0.7272,-0.7271,0,0,0,0,0,0,0,-0.7466,-0.7461,-0.741,-0.7408,-0.7405,-0.7395,-0.7389,-0.7374,-0.7339,-0.736,-0.7357,-0.7351,-0.7307,-0.7298,-0.7295,-0.7272,-0.7274,-0.7272,-0.7271,-0.727,-0.7247,-0.7247,0,0,0,0,0,0,-0.7473,-0.7463,-0.7412,-0.7408,-0.7433,-0.7394,-0.7387,-0.7377,-0.7339,-0.7333,-0.7351,-0.7349,-0.7301,-0.7297,-0.7293,-0.7288,-0.7272,-0.727,-0.7269,-0.7246,-0.7247,-0.7247,0,0,0,0,0,0,-0.7475,-0.7469,-0.7414,-0.7435,-0.7427,-0.7393,-0.7382,-0.7376,-0.7366,-0.7333,-0.7326,-0.7348,-0.7301,-0.7295,-0.7282,-0.7285,-0.7269,-0.7268,-0.7246,-0.7246,-0.7247,-0.7279,0,0,0,0,0,0,-0.7477,-0.747,-0.7469,-0.7435,-0.7426,-0.7404,-0.7382,-0.7375,-0.7363,-0.736,-0.7328,-0.7322,-0.73,-0.7284,-0.728,-0.7283,-0.7266,-0.7245,-0.7246,-0.7247,-0.7278,-0.7281,-0.7284,0,0,0,0,0,-0.748,-0.7481,-0.7469,-0.7463,-0.7425,-0.7404,-0.7399,-0.7373,-0.7364,-0.7363,-0.7341,-0.7323,-0.7286,-0.7283,-0.7278,-0.728,-0.7245,-0.7246,-0.7247,-0.7276,-0.728,-0.7284,0,0,0,0,0,0,-0.7517,-0.7476,-0.7463,-0.7453,-0.7433,-0.7398,-0.7396,-0.7379,-0.736,-0.7358,-0.7327,-0.732,-0.731,-0.7294,-0.7292,-0.7277,-0.7263,-0.7263,-0.7287,-0.7291,-0.7294,-0.7298,-0.7265,0,0,0,0,0,-0.7524,-0.7511,-0.7476,-0.7471,-0.7461,-0.743,-0.742,-0.7402,-0.738,-0.7371,-0.7348,-0.7327,-0.731,-0.73,-0.7283,-0.7275,-0.7267,-0.7274,-0.7277,-0.728,-0.728,-0.7273,-0.7276,-0.725,-0.725,-0.725,0,0,-0.7539,-0.7515,-0.7508,-0.7478,-0.7459,-0.7446,-0.7423,-0.741,-0.74,-0.7369,-0.7354,-0.7337,-0.7311,-0.73,-0.7294,-0.7287,-0.7285,-0.7281,-0.7283,-0.7282,-0.7275,-0.7277,-0.7279,-0.7251,-0.7251,-0.7251,0,0,-0.7558,-0.7539,-0.7532,-0.7514,-0.7486,-0.7466,-0.7464,-0.7432,-0.7419,-0.7403,-0.7379,-0.7367,-0.7339,-0.7321,-0.7308,-0.732,-0.7302,-0.7315,-0.733,-0.7324,-0.7326,-0.7328,-0.7331,-0.7332,-0.7315,-0.7316,-0.7316,0,-0.758,-0.7558,-0.7531,-0.7519,-0.7505,-0.7476,-0.7468,-0.7452,-0.7421,-0.7412,-0.7404,-0.7367,-0.7348,-0.7332,-0.7335,-0.7326,-0.7322,-0.7318,-0.7328,-0.733,-0.7331,-0.7333,-0.7335,-0.7317,-0.7317,-0.7317,-0.7317,0,-0.7586,-0.7571,-0.7569,-0.7538,-0.7525,-0.7515,-0.7486,-0.7475,-0.7458,-0.7438,-0.7423,-0.7398,-0.7375,-0.737,-0.7354,-0.7351,-0.7347,-0.7334,-0.732,-0.7335,-0.7337,-0.7338,-0.732,-0.7319,-0.7318,-0.7318,0,0,-0.7628,-0.7581,-0.758,-0.7565,-0.7532,-0.752,-0.7509,-0.7486,-0.7477,-0.7456,-0.7445,-0.7422,-0.7409,-0.7395,-0.7376,-0.7371,-0.738,-0.7358,-0.7357,-0.7362,-0.7374,-0.7384,-0.7385,-0.7368,-0.7368,-0.7368,-0.7376,0,-0.7641,-0.7619,-0.7593,-0.7579,-0.7565,-0.7536,-0.7526,-0.7504,-0.7485,-0.747,-0.7449,-0.7433,-0.7418,-0.7409,-0.7403,-0.738,-0.7382,-0.7379,-0.7357,-0.7357,-0.7364,-0.7386,-0.7396,-0.7405,-0.7377,-0.7377,-0.7377,0,-0.7654,-0.7634,-0.7618,-0.7585,-0.7578,-0.7569,-0.7545,-0.7531,-0.7506,-0.7492,-0.7476,-0.7455,-0.7441,-0.7429,-0.7409,-0.7408,-0.7397,-0.7384,-0.7384,-0.738,-0.7367,-0.7382,-0.7407,-0.7408,-0.7378,-0.7378,-0.7378,0,-0.7685,-0.7653,-0.764,-0.7628,-0.7589,-0.7583,-0.7567,-0.7541,-0.7528,-0.7507,-0.7499,-0.7477,-0.7464,-0.7448,-0.7422,-0.7415,-0.7404,-0.739,-0.7391,-0.7392,-0.739,-0.739,-0.7412,-0.7385,-0.7385,-0.7385,-0.7385,0,-0.7702,-0.7694,-0.7653,-0.7644,-0.7633,-0.7604,-0.7594,-0.7575,-0.7552,-0.7539,-0.7513,-0.7502,-0.7468,-0.7453,-0.7432,-0.7418,-0.7413,-0.7401,-0.7395,-0.7403,-0.7404,-0.7395,-0.7393,-0.7385,-0.7385,-0.7385,-0.7385,0,-0.7734,-0.7707,-0.769,-0.7654,-0.7644,-0.7638,-0.7607,-0.7598,-0.7577,-0.7561,-0.7555,-0.7523,-0.7503,-0.7475,-0.7447,-0.7433,-0.7421,-0.7413,-0.743,-0.7426,-0.7429,-0.7429,-0.7445,-0.7445,-0.7419,-0.7419,-0.742,0,-0.7747,-0.7739,-0.7702,-0.7691,-0.7676,-0.7659,-0.7645,-0.7615,-0.7602,-0.7572,-0.7566,-0.7544,-0.7525,-0.7494,-0.7468,-0.7446,-0.7436,-0.7444,-0.7433,-0.744,-0.7435,-0.7435,-0.7434,-0.7446,-0.7446,-0.7447,-0.7447,0,-0.7771,-0.7758,-0.7739,-0.7715,-0.7699,-0.7679,-0.7658,-0.7651,-0.7616,-0.7603,-0.7582,-0.7567,-0.7537,-0.7516,-0.749,-0.7473,-0.7454,-0.7451,-0.745,-0.7457,-0.7466,-0.746,-0.7436,-0.745,-0.745,-0.745,-0.745,-0.7449,-0.7793,-0.7785,-0.7757,-0.7736,-0.7717,-0.7698,-0.7686,-0.7664,-0.7645,-0.7619,-0.7602,-0.7582,-0.7555,-0.7518,-0.7502,-0.7485,-0.7478,-0.7477,-0.7476,-0.7476,-0.7478,-0.7469,-0.7481,-0.7481,-0.748,-0.748,-0.748,0,-0.7816,-0.7796,-0.7778,-0.7748,-0.7732,-0.7715,-0.769,-0.7678,-0.766,-0.7637,-0.7618,-0.7593,-0.7571,-0.7543,-0.7519,-0.7511,-0.7502,-0.7506,-0.7505,-0.7502,-0.7487,-0.749,-0.7513,-0.7513,-0.7513,-0.7513,-0.7513,-0.7513,-0.7825,-0.7809,-0.7792,-0.7766,-0.7747,-0.7726,-0.7713,-0.7694,-0.7675,-0.7649,-0.763,-0.7612,-0.7586,-0.756,-0.7539,-0.7531,-0.7523,-0.753,-0.7519,-0.7506,-0.7503,-0.75,-0.7502,-0.7528,-0.7528,-0.7535,-0.7535,-0.7535]},{"header":{"parameterUnit":"m.s-1","parameterCategory":1,"la1":30.2991,"la2":30.254,"lo1":-89.0895,"lo2":-89.0444,"dy":0.0017,"dx":0.0017,"nx":28,"ny":28,"refTime":"2024-08-31T03:00:00:Z","depth":0,"parameterNumber":3,"parameterNumberName":"V-component_of_WINDS"},"data":[0,0,0,0,0,0,0,0,0,0,0,0,0,0,0,0,0,0,0,0,0,0,0,0,0,0,0,0,0,0,0,0,0,0,0,0,0,0,0,0,0,0,0,0,0,0,0,0,0,0,0,0,0,0,0,0,0,0,1.476,1.476,0,1.4771,1.4771,1.4771,1.4728,1.4727,1.4725,1.4724,1.4736,1.4737,1.4738,0,0,0,0,0,0,0,0,0,0,0,0,0,1.4702,1.4703,1.476,1.476,1.476,1.477,1.4771,1.4771,1.4728,1.4727,1.4725,1.4724,1.4735,1.4737,1.4739,0,0,0,0,0,0,0,0,0,0,0,0,0,1.4721,1.4703,1.476,1.474,1.4738,1.477,1.4771,1.4771,1.4729,1.4727,1.4725,1.4723,1.4734,1.4737,1.4739,1.4791,0,0,1.4746,1.4747,0,0,0,0,0,0,0,0,1.472,1.4723,1.4743,1.4741,1.474,1.4746,1.4754,1.4777,1.4729,1.4732,1.4724,1.4722,1.4741,1.4742,1.4748,1.4791,1.4792,1.4746,1.4747,1.4748,1.4749,0,0,0,0,0,0,0,1.4719,1.4723,1.4764,1.4743,1.4741,1.473,1.4731,1.4758,1.4747,1.4732,1.4729,1.4731,1.4739,1.4746,1.4748,1.4792,1.4746,1.4748,1.4749,1.475,1.4877,1.4878,0,0,0,0,0,0,1.472,1.4722,1.4764,1.4764,1.4725,1.4733,1.4734,1.4746,1.4746,1.4745,1.4732,1.4729,1.4743,1.4746,1.4749,1.4808,1.4748,1.475,1.4751,1.4874,1.4877,1.4879,0,0,0,0,0,0,1.4719,1.4724,1.4763,1.4742,1.4746,1.4736,1.475,1.4747,1.4754,1.4747,1.4744,1.4742,1.4742,1.4745,1.478,1.4808,1.4751,1.4753,1.4872,1.4875,1.4878,1.4929,0,0,0,0,0,0,1.4718,1.4724,1.4744,1.4743,1.4748,1.4795,1.4752,1.4749,1.4758,1.4753,1.4755,1.4753,1.4741,1.4777,1.4782,1.481,1.4755,1.487,1.4874,1.4877,1.4925,1.4934,1.4941,0,0,0,0,0,1.4716,1.4758,1.4745,1.475,1.4772,1.4797,1.4799,1.4784,1.476,1.478,1.4775,1.4753,1.4804,1.4781,1.4787,1.4816,1.4868,1.4872,1.4877,1.4921,1.4932,1.4941,0,0,0,0,0,0,1.4763,1.4758,1.4743,1.4786,1.4792,1.4789,1.4814,1.4796,1.4808,1.4804,1.4784,1.4785,1.4823,1.4823,1.4797,1.4865,1.4832,1.4838,1.4864,1.4874,1.4882,1.4881,1.4757,0,0,0,0,0,1.4778,1.4798,1.4793,1.4832,1.4835,1.4824,1.4834,1.4822,1.4827,1.4829,1.4827,1.4833,1.485,1.4862,1.4878,1.4925,1.4924,1.4948,1.4956,1.4962,1.4967,1.4992,1.5002,1.4894,1.4894,1.4894,0,0,1.481,1.481,1.4824,1.4841,1.4844,1.4865,1.4826,1.4851,1.4866,1.4833,1.4866,1.4864,1.487,1.4911,1.4929,1.4912,1.4997,1.4968,1.4973,1.4975,1.4997,1.5008,1.5017,1.4897,1.4897,1.4896,0,0,1.4879,1.4881,1.4913,1.4917,1.4922,1.4914,1.4922,1.4922,1.492,1.4952,1.4927,1.4945,1.4976,1.498,1.4987,1.5057,1.5037,1.5063,1.5105,1.5128,1.5137,1.5144,1.5169,1.5178,1.5068,1.5068,1.5068,0,1.4918,1.495,1.4932,1.4958,1.4966,1.4937,1.4969,1.4974,1.4984,1.499,1.4971,1.5008,1.5009,1.5051,1.5068,1.5074,1.5082,1.5062,1.5137,1.5144,1.5151,1.5174,1.5183,1.5071,1.5071,1.507,1.507,0,1.4997,1.5019,1.5045,1.5055,1.5065,1.5095,1.5081,1.5095,1.5081,1.5075,1.5108,1.5109,1.5124,1.5133,1.512,1.5173,1.5162,1.514,1.5106,1.5165,1.5186,1.5195,1.5075,1.5074,1.5073,1.5073,0,0,1.5096,1.5096,1.5106,1.5109,1.5113,1.5129,1.5157,1.5171,1.5182,1.519,1.5213,1.5239,1.5219,1.5226,1.5213,1.5235,1.5289,1.521,1.521,1.5224,1.5346,1.5362,1.5373,1.5276,1.5278,1.5279,1.5345,0,1.5164,1.521,1.5195,1.5243,1.5263,1.5235,1.5259,1.5263,1.5258,1.5274,1.5269,1.5287,1.526,1.5264,1.5284,1.5279,1.5314,1.5274,1.5297,1.5298,1.5296,1.5384,1.5401,1.5463,1.5354,1.5355,1.5356,0,1.5249,1.5259,1.5309,1.5308,1.5315,1.5337,1.5349,1.5365,1.5369,1.5364,1.5372,1.5355,1.5381,1.5348,1.5384,1.5357,1.5365,1.5365,1.5367,1.5368,1.533,1.5387,1.5483,1.5492,1.5369,1.5368,1.5367,0,1.5315,1.5342,1.5375,1.5379,1.5379,1.5395,1.5396,1.5398,1.5407,1.5418,1.5423,1.5437,1.5444,1.5455,1.5441,1.5418,1.5479,1.5445,1.5476,1.5476,1.549,1.5489,1.5588,1.5496,1.5496,1.5496,1.5496,0,1.5392,1.5423,1.5405,1.5425,1.5459,1.5441,1.5475,1.5472,1.5475,1.5494,1.5471,1.5489,1.5471,1.5487,1.5477,1.5508,1.5512,1.5509,1.5505,1.551,1.5511,1.5515,1.551,1.5498,1.5498,1.5497,1.5497,0,1.5472,1.5461,1.5495,1.5492,1.5492,1.5517,1.5514,1.5532,1.5526,1.555,1.5555,1.5544,1.5563,1.5551,1.5569,1.5562,1.5603,1.5594,1.5602,1.5599,1.563,1.5627,1.5735,1.5748,1.5649,1.565,1.5651,0,1.5521,1.5544,1.5544,1.5555,1.5557,1.5575,1.5584,1.5568,1.5578,1.5585,1.5602,1.5618,1.563,1.5661,1.5655,1.5669,1.566,1.5696,1.5662,1.5666,1.566,1.5658,1.566,1.5703,1.5705,1.5706,1.5706,0,1.561,1.5603,1.5617,1.563,1.5641,1.565,1.5657,1.5668,1.5651,1.5664,1.5682,1.5692,1.571,1.5726,1.5738,1.5738,1.572,1.5717,1.5725,1.573,1.5733,1.5731,1.562,1.5715,1.5714,1.5713,1.5713,1.5713,1.5676,1.5695,1.5697,1.5713,1.5717,1.5724,1.5741,1.5736,1.5751,1.5765,1.5754,1.5776,1.5779,1.5792,1.5795,1.5811,1.5796,1.5808,1.5811,1.5814,1.5818,1.5731,1.5813,1.5813,1.5813,1.5813,1.5813,0,1.5763,1.5762,1.5778,1.5788,1.5801,1.5782,1.5789,1.5801,1.582,1.5824,1.5837,1.5857,1.5873,1.5868,1.5882,1.5896,1.5887,1.59,1.5898,1.5899,1.5831,1.5822,1.5906,1.5906,1.5906,1.5906,1.5906,1.5906,1.5809,1.584,1.5834,1.5866,1.5866,1.5886,1.5892,1.5898,1.5901,1.5925,1.5938,1.5934,1.5935,1.5949,1.5962,1.596,1.5966,1.5981,1.5976,1.5913,1.5904,1.5895,1.5887,1.5983,1.5983,1.6043,1.6044,1.6044]}]]